This is the latest recevied weather packets stored in our database for station/object OE7AOT-2. If no packets are shown the sender has not sent any weather packets the latest 1 day(s).
| Time | Temp. | Humidity | Pressure | Rain* | Wind** | Luminosity | Snow |
|---|---|---|---|---|---|---|---|
| 1778059642 | 30.56° C | 64% | 916.4 hPa | 0 mm | - | - | - |
| 1778059574 | 30.56° C | 63% | 916.4 hPa | 0 mm | - | - | - |
| 1778059437 | 30.56° C | 63% | 916.3 hPa | 0 mm | - | - | - |
| 1778059300 | 31.11° C | 61% | 916.3 hPa | 0 mm | - | - | - |
| 1778059163 | 31.67° C | 61% | 916.2 hPa | 0 mm | - | - | - |
| 1778059095 | 32.22° C | 61% | 916.2 hPa | 0 mm | - | - | - |
| 1778058958 | 32.78° C | 59% | 916.2 hPa | 0 mm | - | - | - |
| 1778058821 | 33.33° C | 61% | 916.4 hPa | 0 mm | - | - | - |
| 1778058684 | 32.78° C | 62% | 916.2 hPa | 0 mm | - | - | - |
| 1778058616 | 32.78° C | 61% | 916.3 hPa | 0 mm | - | - | - |
| 1778058479 | 32.78° C | 58% | 916.3 hPa | 0 mm | - | - | - |
| 1778058342 | 33.89° C | 57% | 916.2 hPa | 0 mm | - | - | - |
| 1778058205 | 34.44° C | 59% | 916.2 hPa | 0 mm | - | - | - |
| 1778058137 | 34.44° C | 59% | 916.2 hPa | 0 mm | - | - | - |
| 1778058000 | 34.44° C | 65% | 916.3 hPa | 0 mm | - | - | - |
| 1778057863 | 33.33° C | 65% | 916.4 hPa | 0 mm | - | - | - |
| 1778057726 | 32.78° C | 66% | 916.3 hPa | 0 mm | - | - | - |
| 1778057658 | 32.22° C | 65% | 916.3 hPa | 0 mm | - | - | - |
| 1778057521 | 32.22° C | 64% | 916.3 hPa | 0 mm | - | - | - |
| 1778057452 | 32.22° C | 64% | 916.3 hPa | 0 mm | - | - | - |
| 1778057384 | 32.22° C | 63% | 916.3 hPa | 0 mm | - | - | - |
| 1778057315 | 32.22° C | 63% | 916.3 hPa | 0 mm | - | - | - |
| 1778057247 | 32.22° C | 64% | 916.4 hPa | 0 mm | - | - | - |
| 1778056973 | 32.22° C | 67% | 916.3 hPa | 0 mm | - | - | - |
| 1778056905 | 31.67° C | 67% | 916.3 hPa | 0 mm | - | - | - |
* Rain latest hour (hover to see other rain measurements)
** Current wind speed in m/s (hover to see current wind gust speed)